Regional Weather Roundup
Issued by NWS

Home | Current Version | Previous Version | Graphics & Text | Print | Product List | Glossary On
Versions: 1 2 3 4 5 6 7 8 9 10 11 12 13 14 15 16 17 18 19 20 21 22 23 24 25 26 27 28 29 30 31 32 33 34 35 36 37 38 39 40 41 42 43 44 45 46 47 48 49 50
000
ASUS45 KABQ 221110
RWRNM
WEATHER ROUNDUP FOR NEW MEXICO
NATIONAL WEATHER SERVICE ALBUQUERQUE NM
400 AM MST MON DEC 22 2014

NOTE: "FAIR" MEANS FEW OR NO CLOUDS BELOW 12,000 FEET AGL WITH NO
       SIGNIFICANT WEATHER OR OBSTRUCTIONS TO VISION.

      THIS PRODUCT IS RELEASED AS TWO VERSIONS.  ONE VERSION NEAR
      THE TOP OF THE HOUR CONTAINING PRELIMINARY DATA FROM ALBUQUERQUE
      AND OTHER STATIONS.  A FINAL VERSION WITH ADDITIONAL DATA IS
      ISSUED ABOUT 10 MINUTES AFTER THE HOUR.

NMZ501-503-504-510>518-221200-
NORTHWEST PLATEAU/NORTHCENTRAL MOUNTAINS

CITY           SKY/WX    TMP DP  RH WIND       PRES   REMARKS
FARMINGTON     CLEAR     34  29  82 SW13      29.92S WCI  25
LOS ALAMOS     PTCLDY    44  27  51 NW21G38   29.83S
SANTA FE       PTCLDY    40  29  64 W24G30    29.81F WCI  29
TAOS           PTCLDY    32  27  80 SW10      29.80F WCI  24
ANGEL FIRE     FAIR      32  27  81 W20G33    29.77F WCI  20

$$
NMZ402-403-502-505>509-221200-
WESTCENTRAL MOUNTAINS/SOUTHWEST MOUNTAINS

CITY           SKY/WX    TMP DP  RH WIND       PRES   REMARKS
GALLUP         PTCLDY    34  30  85 SW8       30.03S WCI  27
GRANTS         CLEAR     32  29  86 W5        30.00F WCI  28
SILVER CITY    CLEAR     37  28  70 NW17      30.02S WCI  28

$$
NMZ407-409-411-412-221200-
SOUTHERN DESERTS

CITY           SKY/WX    TMP DP  RH WIND       PRES   REMARKS
LORDSBURG      FAIR      34  32  93 W3        30.02S
DEMING         MOCLDY    42  32  67 W13       29.97R
LAS CRUCES     CLOUDY    43  31  62 W9        29.94F
HOLLOMAN AFB   PTCLDY    32  27  84 N2        29.88F
ALAMOGORDO     PTCLDY    34  27  75 CALM      29.89F
T OR C         CLEAR     48  32  53 W16       29.91F

$$
NMZ519>523-221200-
CENTRAL VALLEYS/CENTRAL HIGHLANDS

CITY           SKY/WX    TMP DP  RH WIND       PRES   REMARKS
ALBUQUERQUE    MOCLDY    33  28  81 SE3       29.91F
DOUBLE EAGLE   CLEAR     32  27  83 S5        29.92F WCI  27
MORIARTY ARPT  FAIR      45  29  55 W21G28    29.84S
CLINES CORNERS PTCLDY    38  29  70 NW16G25   29.83F WCI  29
BELEN          FAIR      42  32  66 W5        29.91S
SOCORRO        FAIR      49  32  51 N6        29.90R

$$
NMZ524>526-539-540-221200-
SOUTHCENTRAL MOUNTAINS

CITY           SKY/WX    TMP DP  RH WIND       PRES   REMARKS
RUIDOSO        PTCLDY    46  27  46 W38G48    29.84F

$$
NMZ527>531-221200-
NORTHEAST HIGHLANDS/NORTHEAST PLAINS

CITY           SKY/WX    TMP DP  RH WIND       PRES   REMARKS
LAS VEGAS      PTCLDY    44  24  45 W28G38    29.73F
RATON          LGT RAIN  37  33  85 N12       29.72R WCI  29
CLAYTON        LGT RAIN  38  35  89 NW20G28   29.74R WCI  28

$$
NMZ532>537-221200-
EASTCENTRAL PLAINS

CITY           SKY/WX    TMP DP  RH WIND       PRES   REMARKS
TUCUMCARI      CLEAR     39  28  64 N6        29.68R WCI  35
CANNON AFB     CLEAR     48  31  51 W16       29.67S
CLOVIS AIRPORT CLEAR     46  30  53 W14       29.66R

$$
NMZ028-029-538-221200-
SOUTHEAST PLAINS

CITY           SKY/WX    TMP DP  RH WIND       PRES   REMARKS
ROSWELL        CLOUDY    44  29  55 CALM      29.73F
ARTESIA        CLOUDY    52  28  40 SW17G24   29.76S
CARLSBAD       CLOUDY    61  28  28 W25G33    29.73S
HOBBS          CLOUDY    52  28  40 W15       29.72F


$$


USA.gov is the U.S. government's official web portal to all federal, state and local government web resources and services.